FW0450 Weather Reports


time (UTC)temp
C
wind
direction
speed
KPH
gust
KPH
rain 1hr
cm
rain 24hr
cm
rain mn
cm
humidity
%
barometer
mb
20180818042505 16 93 3.2 4.8 0.00 0.00 0.00 94 1027.4
20180818042006 16 71 1.6 3.2 0.00 0.00 0.00 94 1027.4
20180818041505 16 69 1.6 3.2 0.00 0.00 0.00 94 1027.4
20180818041006 16 135 0.0 1.6 0.00 0.00 0.00 94 1026.4
20180818040506 16 135 1.6 3.2 0.00 0.00 0.00 94 1026.4
20180818040006 16 128 3.2 3.2 0.00 0.00 0.00 93 1026.4
20180818035505 16 116 3.2 4.8 0.00 0.00 0.00 93 1027.4
20180818035005 16 100 4.8 4.8 0.00 0.00 0.00 93 1027.4
20180818034506 16 97 3.2 4.8 0.00 0.00 0.00 93 1027.4
20180818034006 16 119 1.6 4.8 0.00 0.00 0.00 94 1027.4
20180818033506 16 135 1.6 3.2 0.00 0.00 0.00 94 1027.4
20180818033006 16 135 3.2 3.2 0.00 0.00 0.00 94 1027.4
20180818032505 16 135 3.2 3.2 0.00 0.00 0.00 93 1027.4
20180818032006 16 135 3.2 3.2 0.00 0.00 0.00 93 1027.4
20180818031506 16 151 3.2 3.2 0.00 0.00 0.00 93 1027.4
20180818031005 16 181 1.6 3.2 0.00 0.00 0.00 93 1027.4
20180818030506 16 181 1.6 3.2 0.00 0.00 0.00 93 1027.4
20180818030006 16 181 3.2 3.2 0.00 0.00 0.00 93 1027.4
20180818025506 16 181 3.2 3.2 0.00 0.00 0.00 93 1027.4
20180818025006 16 181 3.2 4.8 0.00 0.00 0.00 93 1027.4
20180818024506 16 181 3.2 4.8 0.00 0.00 0.00 93 1027.4
20180818024006 16 182 3.2 4.8 0.00 0.00 0.00 93 1026.4
20180818023506 16 187 3.2 4.8 0.00 0.00 0.00 93 1026.4
20180818023006 16 185 3.2 4.8 0.00 0.00 0.00 92 1026.4
20180818022506 16 181 3.2 4.8 0.00 0.00 0.00 92 1025.4
20180818022006 16 181 3.2 3.2 0.00 0.00 0.00 92 1025.4
20180818021506 16 189 3.2 4.8 0.00 0.00 0.00 92 1025.4
20180818021006 16 201 3.2 4.8 0.00 0.00 0.00 92 1025.4
20180818020507 16 217 4.8 4.8 0.00 0.00 0.00 92 1025.4
20180818020006 16 223 4.8 6.4 0.00 0.00 0.00 92 1025.4
20180818015506 16 215 4.8 6.4 0.00 0.00 0.00 92 1025.4
20180818015006 16 217 4.8 4.8 0.00 0.00 0.00 92 1025.4
20180818014506 16 225 4.8 4.8 0.00 0.00 0.00 92 1025.4
20180818014006 16 234 4.8 4.8 0.00 0.00 0.00 92 1026.4
20180818013506 16 245 4.8 4.8 0.00 0.00 0.00 93 1026.4
20180818013007 16 256 4.8 4.8 0.00 0.00 0.00 93 1026.4
20180818012506 16 276 3.2 4.8 0.00 0.00 0.00 93 1026.4
20180818012006 16 260 3.2 6.4 0.00 0.00 0.00 93 1026.4
20180818011506 16 257 4.8 6.4 0.00 0.00 0.00 93 1026.4
20180818011006 16 255 4.8 6.4 0.00 0.00 0.00 93 1026.4
20180818010506 16 247 3.2 4.8 0.00 0.00 0.00 93 1026.4
20180818010007 16 254 4.8 4.8 0.00 0.00 0.00 93 1026.4
20180818005506 16 268 4.8 4.8 0.00 0.00 0.00 93 1025.4
20180818005006 16 270 4.8 4.8 0.00 0.00 0.00 93 1025.4
20180818004506 16 266 3.2 4.8 0.00 0.00 0.00 93 1025.4
20180818004006 16 268 3.2 4.8 0.00 0.00 0.00 93 1025.4
20180818003006 16 277 3.2 3.2 0.00 0.00 0.00 92 1025.4
20180818002506 16 289 3.2 3.2 0.00 0.00 0.00 92 1026.4
20180818002006 16 296 3.2 3.2 0.00 0.00 0.00 92 1026.4
20180818001506 16 299 3.2 4.8 0.00 0.00 0.00 92 1026.4
20180818001006 16 307 4.8 6.4 0.00 0.00 0.00 92 1025.4
20180818000506 16 312 4.8 6.4 0.00 0.00 0.00 92 1025.4
20180818000006 16 313 4.8 6.4 0.00 0.00 0.00 92 1025.4
20180817235506 16 309 4.8 6.4 0.00 0.00 0.00 91 1025.4
20180817235007 16 306 4.8 4.8 0.00 0.00 0.00 91 1025.4
20180817234506 16 304 4.8 4.8 0.00 0.00 0.00 91 1025.4
20180817234006 16 294 4.8 6.4 0.00 0.00 0.00 91 1025.4
20180817233507 16 272 4.8 6.4 0.00 0.00 0.00 91 1025.4
20180817233006 16 260 4.8 4.8 0.00 0.00 0.00 91 1025.4
20180817232506 16 257 4.8 4.8 0.00 0.00 0.00 91 1025.4
20180817232007 16 255 4.8 4.8 0.00 0.00 0.00 91 1025.4
20180817231506 16 258 4.8 4.8 0.00 0.00 0.00 91 1025.4
20180817231006 16 258 4.8 6.4 0.00 0.00 0.00 91 1024.4
20180817230506 16 270 4.8 6.4 0.00 0.00 0.00 91 1024.4
20180817230009 16 275 4.8 6.4 0.00 0.00 0.00 91 1024.4
20180817225506 16 270 4.8 6.4 0.00 0.00 0.00 91 1024.4
20180817225006 16 280 4.8 4.8 0.00 0.00 0.00 91 1024.4
20180817224506 16 288 4.8 4.8 0.00 0.00 0.00 91 1024.4
20180817224006 16 284 4.8 4.8 0.00 0.00 0.00 91 1025.4
20180817223506 16 289 4.8 6.4 0.00 0.00 0.00 91 1025.4
20180817223007 16 305 4.8 6.4 0.00 0.00 0.00 91 1025.4
20180817222506 16 311 4.8 6.4 0.00 0.00 0.00 91 1025.4
20180817222006 16 310 3.2 4.8 0.00 0.00 0.00 91 1025.4
20180817221506 16 311 3.2 4.8 0.00 0.00 0.00 91 1025.4
20180817221006 16 314 3.2 6.4 0.00 0.00 0.00 91 1025.4
20180817220506 16 320 4.8 6.4 0.00 0.00 0.00 90 1025.4
20180817220007 16 325 4.8 8.0 0.00 0.00 0.00 90 1025.4
20180817215506 16 324 6.4 9.7 0.00 0.00 0.00 90 1025.4
20180817215007 16 322 6.4 9.7 0.00 0.00 0.00 90 1025.4
20180817214506 16 329 4.8 6.4 0.00 0.00 0.00 90 1025.4
20180817214007 16 326 6.4 8.0 0.00 0.00 0.00 89 1025.4
20180817213506 16 305 6.4 8.0 0.00 0.00 0.00 89 1025.4
20180817213006 16 304 6.4 8.0 0.00 0.00 0.00 89 1025.4
20180817212507 16 313 4.8 8.0 0.00 0.00 0.00 89 1024.4
20180817212006 16 300 4.8 6.4 0.00 0.00 0.00 89 1024.4
20180817211507 16 295 4.8 8.0 0.00 0.00 0.00 88 1024.4
20180817211006 16 302 6.4 8.0 0.00 0.00 0.00 88 1024.4
20180817210506 16 308 6.4 9.7 0.00 0.00 0.00 88 1024.4
20180817210006 16 315 8.0 9.7 0.00 0.00 0.00 88 1024.4
20180817205507 16 313 9.7 12.9 0.00 0.00 0.00 88 1024.4
20180817205007 16 312 11.3 12.9 0.00 0.00 0.00 88 1024.4
20180817204506 16 314 9.7 12.9 0.00 0.00 0.00 88 1024.4
20180817204007 17 314 9.7 11.3 0.00 0.00 0.00 88 1024.4
20180817203506 17 312 8.0 9.7 0.00 0.00 0.00 87 1024.4
20180817203007 17 313 9.7 12.9 0.00 0.00 0.00 87 1024.4
20180817202506 17 314 9.7 14.5 0.00 0.00 0.00 87 1024.4
20180817202007 17 314 9.7 14.5 0.00 0.00 0.00 87 1024.4
20180817201506 17 323 8.0 9.7 0.00 0.00 0.00 86 1024.4
20180817201007 17 321 8.0 9.7 0.00 0.00 0.00 85 1024.4
20180817200506 17 318 9.7 14.5 0.00 0.00 0.00 85 1024.4
20180817200007 17 327 11.3 16.1 0.00 0.00 0.00 85 1024.4
20180817195506 17 327 12.9 16.1 0.00 0.00 0.00 85 1024.4
20180817195006 17 336 11.3 14.5 0.00 0.00 0.00 85 1024.4
20180817194506 17 343 11.3 14.5 0.00 0.00 0.00 84 1024.4
20180817194007 17 330 11.3 14.5 0.00 0.00 0.00 84 1024.4
20180817193507 17 326 11.3 12.9 0.00 0.00 0.00 83 1024.4
20180817193006 17 331 11.3 16.1 0.00 0.00 0.00 83 1024.4
20180817192507 18 324 11.3 16.1 0.00 0.00 0.00 83 1024.4
20180817192006 18 326 12.9 17.7 0.00 0.00 0.00 82 1024.4
20180817191506 18 339 11.3 17.7 0.00 0.00 0.00 82 1024.4
20180817191007 18 341 9.7 12.9 0.00 0.00 0.00 82 1024.4
20180817190506 18 332 11.3 16.1 0.00 0.00 0.00 82 1024.4
20180817190007 18 325 12.9 19.3 0.00 0.00 0.00 82 1024.4
20180817185506 18 336 12.9 19.3 0.00 0.00 0.00 81 1024.4
20180817185007 18 357 14.5 19.3 0.00 0.00 0.00 81 1024.4
20180817184506 18 344 14.5 17.7 0.00 0.00 0.00 81 1024.4
20180817184006 18 325 12.9 16.1 0.00 0.00 0.00 81 1024.4
20180817183507 18 332 12.9 16.1 0.00 0.00 0.00 81 1024.4
20180817183006 18 326 12.9 17.7 0.00 0.00 0.00 81 1024.4
20180817182507 18 322 14.5 17.7 0.00 0.00 0.00 81 1024.4
20180817182007 18 335 16.1 19.3 0.00 0.00 0.00 81 1024.4
20180817181506 19 344 16.1 20.9 0.00 0.00 0.00 80 1024.4
20180817181007 19 336 14.5 20.9 0.00 0.00 0.00 79 1025.4
20180817180506 19 340 11.3 16.1 0.00 0.00 0.00 79 1025.4
20180817180007 19 353 9.7 16.1 0.00 0.00 0.00 79 1025.4
20180817175507 19 340 11.3 16.1 0.00 0.00 0.00 79 1026.4
20180817175006 19 324 14.5 17.7 0.00 0.00 0.00 79 1026.4
20180817174507 19 318 14.5 17.7 0.00 0.00 0.00 79 1026.4
20180817174006 19 319 14.5 17.7 0.00 0.00 0.00 79 1027.4
20180817173507 19 326 14.5 17.7 0.00 0.00 0.00 79 1027.4
20180817173006 19 335 16.1 20.9 0.00 0.00 0.00 79 1027.4
20180817172507 19 328 16.1 20.9 0.00 0.00 0.00 78 1028.4
20180817172007 19 319 16.1 19.3 0.00 0.00 0.00 78 1028.4
20180817171506 19 319 16.1 20.9 0.00 0.00 0.00 78 1028.4
20180817171007 19 335 14.5 20.9 0.00 0.00 0.00 78 1028.4
20180817170506 20 338 12.9 20.9 0.00 0.00 0.00 78 1028.4
20180817170007 20 324 12.9 20.9 0.00 0.00 0.00 78 1028.4
20180817165507 20 318 12.9 20.9 0.00 0.00 0.00 77 1029.4
20180817165007 20 326 14.5 20.9 0.00 0.00 0.00 77 1029.4
20180817164507 20 327 16.1 20.9 0.00 0.00 0.00 77 1029.4
20180817164007 20 316 16.1 22.5 0.00 0.00 0.00 77 1029.4
20180817163507 20 319 16.1 22.5 0.00 0.00 0.00 76 1029.4
20180817163007 20 338 14.5 19.3 0.00 0.00 0.00 76 1029.4
20180817162506 20 338 14.5 17.7 0.00 0.00 0.00 76 1031.4
20180817162007 20 326 14.5 20.9 0.00 0.00 0.00 76 1031.4
20180817161508 20 328 14.5 20.9 0.00 0.00 0.00 76 1031.4
20180817161007 20 340 16.1 20.9 0.00 0.00 0.00 76 1031.4
20180817160507 20 341 16.1 20.9 0.00 0.00 0.00 76 1031.4
20180817160007 20 329 14.5 24.1 0.00 0.00 0.00 75 1031.4
20180817155507 20 335 14.5 24.1 0.00 0.00 0.00 76 1026.4
20180817155007 20 345 16.1 24.1 0.00 0.00 0.00 75 1026.4
20180817154507 20 340 17.7 22.5 0.00 0.00 0.00 75 1026.4
20180817154007 20 325 16.1 22.5 0.00 0.00 0.00 75 1024.4
20180817153506 20 317 19.3 27.4 0.00 0.00 0.00 75 1024.4
20180817153007 20 327 19.3 27.4 0.00 0.00 0.00 73 1024.4
20180817152506 21 328 16.1 20.9 0.00 0.00 0.00 74 1024.4
20180817152007 21 341 12.9 16.1 0.00 0.00 0.00 74 1024.4
20180817151507 21 358 12.9 20.9 0.00 0.00 0.00 75 1024.4
20180817151007 21 347 11.3 20.9 0.00 0.00 0.00 75 1024.4
20180817150507 21 347 12.9 19.3 0.00 0.00 0.00 74 1024.4
20180817150007 21 347 14.5 19.3 0.00 0.00 0.00 75 1024.4
20180817145512 21 339 14.5 20.9 0.00 0.00 0.00 74 1024.4
20180817145007 21 325 14.5 20.9 0.00 0.00 0.00 75 1024.4
20180817144007 20 345 19.3 27.4 0.00 0.00 0.00 75 1025.4
20180817143507 20 329 17.7 27.4 0.00 0.00 0.00 74 1025.4
20180817143007 21 328 17.7 24.1 0.00 0.00 0.00 74 1025.4
20180817142507 21 337 16.1 22.5 0.00 0.00 0.00 74 1025.4
20180817142007 21 336 19.3 27.4 0.00 0.00 0.00 74 1025.4
20180817141507 21 334 20.9 27.4 0.00 0.00 0.00 74 1025.4
20180817141007 21 328 19.3 24.1 0.00 0.00 0.00 74 1025.4
20180817140507 21 330 17.7 24.1 0.00 0.00 0.00 74 1025.4
20180817140007 21 330 17.7 20.9 0.00 0.00 0.00 76 1025.4
20180817135507 20 322 16.1 22.5 0.00 0.00 0.00 76 1026.4
20180817135007 20 336 17.7 24.1 0.00 0.00 0.00 76 1026.4
20180817134507 20 338 19.3 24.1 0.00 0.00 0.00 75 1026.4
20180817134007 20 342 14.5 24.1 0.00 0.00 0.00 75 1026.4
20180817133507 20 351 14.5 24.1 0.00 0.00 0.00 75 1026.4
20180817133007 20 344 16.1 24.1 0.00 0.00 0.00 74 1026.4
20180817132507 21 348 16.1 20.9 0.00 0.00 0.00 73 1026.4
20180817132007 21 348 16.1 20.9 0.00 0.00 0.00 73 1026.4
20180817131507 21 332 17.7 27.4 0.00 0.00 0.00 73 1026.4
20180817131007 21 318 17.7 27.4 0.00 0.00 0.00 72 1026.4
20180817130507 21 322 16.1 22.5 0.00 0.00 0.00 71 1026.4
20180817130008 21 334 16.1 20.9 0.00 0.00 0.00 72 1026.4
20180817125508 22 339 16.1 19.3 0.00 0.00 0.00 72 1027.4
20180817125007 22 339 14.5 19.3 0.00 0.00 0.00 75 1027.4
20180817124508 21 339 14.5 20.9 0.00 0.00 0.00 75 1027.4
20180817124007 21 342 16.1 20.9 0.00 0.00 0.00 74 1027.4
20180817123507 21 342 14.5 19.3 0.00 0.00 0.00 75 1027.4
20180817123007 21 344 14.5 20.9 0.00 0.00 0.00 74 1027.4
20180817122507 21 345 14.5 20.9 0.00 0.00 0.00 75 1027.4
20180817122008 21 329 14.5 20.9 0.00 0.00 0.00 74 1027.4
20180817121507 21 322 14.5 20.9 0.00 0.00 0.00 75 1027.4
20180817121008 21 324 12.9 20.9 0.00 0.00 0.00 74 1027.4
20180817120507 21 332 12.9 17.7 0.00 0.00 0.00 76 1027.4
20180817120008 21 336 14.5 17.7 0.00 0.00 0.00 76 1027.4
20180817115508 21 332 16.1 20.9 0.00 0.00 0.00 76 1027.4
20180817115007 21 324 17.7 20.9 0.00 0.00 0.00 76 1027.4
20180817114507 21 318 14.5 20.9 0.00 0.00 0.00 77 1027.4
20180817114008 21 319 14.5 20.9 0.00 0.00 0.00 77 1027.4
20180817113507 21 327 14.5 20.9 0.00 0.00 0.00 77 1027.4
20180817113008 21 335 14.5 17.7 0.00 0.00 0.00 77 1027.4
20180817112507 20 331 14.5 17.7 0.00 0.00 0.00 79 1028.4
20180817112007 20 333 12.9 17.7 0.00 0.00 0.00 79 1028.4
20180817111507 20 350 14.5 17.7 0.00 0.00 0.00 78 1028.4
20180817111007 20 350 14.5 17.7 0.00 0.00 0.00 80 1028.4
20180817110508 20 336 14.5 17.7 0.00 0.00 0.00 80 1028.4
20180817110007 20 337 12.9 17.7 0.00 0.00 0.00 80 1028.4
20180817105507 20 342 12.9 14.5 0.00 0.00 0.00 80 1027.4
20180817105007 20 329 14.5 17.7 0.00 0.00 0.00 81 1027.4
20180817104508 20 321 14.5 17.7 0.00 0.00 0.00 81 1027.4
20180817104007 20 324 14.5 17.7 0.00 0.00 0.00 83 1028.4
20180817103507 20 322 14.5 17.7 0.00 0.00 0.00 82 1028.4
20180817103008 20 322 11.3 16.1 0.00 0.00 0.00 82 1028.4
20180817102508 20 330 11.3 17.7 0.00 0.00 0.00 84 1028.4
20180817102007 19 339 12.9 17.7 0.00 0.00 0.00 84 1028.4
20180817101507 19 333 14.5 20.9 0.00 0.00 0.00 84 1028.4
20180817101007 19 319 16.1 20.9 0.00 0.00 0.00 84 1027.4
20180817100508 19 314 14.5 20.9 0.00 0.00 0.00 85 1027.4
20180817100007 19 316 12.9 19.3 0.00 0.00 0.00 84 1027.4
20180817095508 19 317 11.3 17.7 0.00 0.00 0.00 87 1028.4
20180817095008 18 319 11.3 16.1 0.00 0.00 0.00 87 1028.4
20180817094507 18 321 11.3 16.1 0.00 0.00 0.00 88 1028.4
20180817094008 18 315 11.3 14.5 0.00 0.00 0.00 88 1027.4
20180817093508 18 320 11.3 14.5 0.00 0.00 0.00 89 1027.4
20180817093008 18 346 12.9 17.7 0.00 0.00 0.00 90 1027.4
20180817092508 18 344 12.9 20.9 0.00 0.00 0.00 91 1028.4
20180817092008 17 334 12.9 20.9 0.00 0.00 0.00 92 1028.4
20180817091507 17 339 12.9 19.3 0.00 0.00 0.00 92 1028.4
20180817091008 17 341 14.5 20.9 0.00 0.00 0.00 92 1027.4
20180817090507 17 345 16.1 20.9 0.00 0.00 0.00 93 1027.4
20180817090007 17 352 16.1 20.9 0.00 0.00 0.00 93 1027.4
20180817085507 17 355 16.1 20.9 0.00 0.00 0.00 93 1027.4
20180817085007 17 354 14.5 24.1 0.00 0.00 0.00 94 1027.4
20180817084508 16 345 14.5 24.1 0.00 0.00 0.00 94 1027.4
20180817084007 16 353 16.1 24.1 0.00 0.00 0.00 95 1027.4
20180817083507 16 352 14.5 16.1 0.00 0.00 0.00 95 1027.4
20180817083008 16 343 16.1 24.1 0.00 0.00 0.00 95 1027.4
20180817082507 16 346 17.7 24.1 0.00 0.00 0.00 94 1027.4
20180817082008 16 342 17.7 20.9 0.00 0.00 0.00 95 1027.4
20180817081507 16 333 19.3 27.4 0.00 0.00 0.00 95 1027.4
20180817081008 16 330 19.3 27.4 0.00 0.00 0.00 95 1027.4
20180817080508 16 345 17.7 24.1 0.00 0.00 0.00 95 1027.4
20180817080007 16 344 17.7 24.1 0.00 0.00 0.00 95 1027.4
20180817075507 16 334 17.7 24.1 0.00 0.00 0.00 95 1027.4
20180817075007 16 347 16.1 24.1 0.00 0.00 0.00 95 1027.4
20180817074507 16 353 14.5 17.7 0.00 0.00 0.00 96 1027.4
20180817074008 16 344 12.9 17.7 0.00 0.00 0.00 96 1027.4
20180817073507 16 345 12.9 24.1 0.00 0.00 0.00 96 1027.4
20180817073008 16 357 14.5 24.1 0.00 0.00 0.00 96 1027.4
20180817072505 16 336 17.7 29.0 0.00 0.00 0.00 96 1027.4
20180817072006 16 324 20.9 29.0 0.00 0.00 0.00 96 1027.4
20180817071506 16 335 20.9 29.0 0.00 0.00 0.00 96 1027.4
20180817071005 16 340 20.9 30.6 0.00 0.00 0.00 96 1027.4
20180817070505 16 342 20.9 30.6 0.00 0.00 0.00 96 1027.4
20180817070006 16 346 24.1 35.4 0.00 0.00 0.00 97 1027.4
20180817065505 16 349 24.1 35.4 0.00 0.00 0.00 97 1027.4
20180817065006 16 1 20.9 32.2 0.00 0.00 0.00 97 1027.4
20180817064506 16 355 22.5 29.0 0.00 0.00 0.00 97 1027.4
20180817064005 16 353 24.1 35.4 0.00 0.00 0.00 97 1027.4
20180817063506 16 347 22.5 35.4 0.00 0.00 0.00 97 1027.4
20180817063006 16 346 20.9 32.2 0.00 0.00 0.00 97 1027.4
20180817062505 16 352 16.1 29.0 0.00 0.00 0.00 97 1027.4
20180817062005 16 353 12.9 25.7 0.00 0.00 0.00 97 1027.4
20180817061505 16 348 16.1 25.7 0.00 0.00 0.00 97 1027.4
20180817061005 16 349 16.1 25.7 0.00 0.00 0.00 97 1027.4
20180817060506 16 351 17.7 24.1 0.00 0.00 0.00 97 1027.4
20180817060005 16 340 16.1 20.9 0.00 0.00 0.00 97 1027.4
20180817055505 16 339 17.7 24.1 0.00 0.00 0.00 97 1028.4
20180817055006 16 353 17.7 24.1 0.00 0.00 0.00 97 1028.4
20180817054506 16 1 16.1 22.5 0.00 0.00 0.00 97 1028.4
20180817054006 16 2 16.1 22.5 0.00 0.00 0.00 97 1027.4
20180817053505 16 352 17.7 27.4 0.00 0.00 0.00 97 1027.4
20180817053005 16 343 19.3 29.0 0.00 0.00 0.00 97 1027.4
20180817052505 16 347 19.3 29.0 0.00 0.00 0.00 97 1027.4
20180817052006 16 346 17.7 29.0 0.00 0.00 0.00 97 1027.4
20180817051505 16 346 19.3 27.4 0.00 0.00 0.00 97 1027.4
20180817051006 16 350 20.9 27.4 0.00 0.00 0.00 97 1028.4
20180817050505 16 346 16.1 24.1 0.00 0.00 0.00 97 1028.4
20180817050006 16 354 16.1 20.9 0.00 0.00 0.00 97 1028.4
20180817045505 16 355 17.7 24.1 0.00 0.00 0.00 97 1027.4
20180817045006 16 352 16.1 24.1 0.00 0.00 0.00 97 1027.4
20180817044505 16 1 17.7 27.4 0.00 0.00 0.00 97 1027.4
20180817044005 16 358 19.3 27.4 0.00 0.00 0.00 97 1027.4
20180817043506 16 1 19.3 25.7 0.00 0.00 0.00 97 1027.4
20180817043005 16 359 19.3 24.1 0.00 0.00 0.00 97 1027.4